Dewpoint
45 44 44 45 45 45 45 46 46 46 46 47 47 46 46 47 47 49 50 49 50 50 51 53 53 53 48 24 21 29 34 27 23 17 13 14 14 12 11 9 13 12 10 17 18 18 19
45 44 43 44 45 45 45 46 46 46 46 46 47 47 46 47 48 49 49 49 49 49 51 51 52 52 40 17 29 28 28 23 20 17 14 14 13 14 11 10 12 14 16 15 17 18 20
43 42 42 44 44 45 45 45 46 46 46 46 46 47 48 48 49 49 48 48 48 48 51 50 51 47 27 26 28 28 28 25 21 17 13 17 15 13 17 13 17 14 12 14 16 17 18
43 43 42 42 43 44 45 45 45 45 45 45 45 47 48 49 49 48 48 47 45 45 49 50 52 45 26 27 27 27 26 24 23 18 17 18 19 16 16 17 12 10 10 9 11 17 17
44 43 43 42 43 44 44 44 44 44 45 45 45 47 48 49 49 46 46 45 43 42 43 43 42 33 24 27 27 27 25 25 25 18 20 16 18 16 18 12 9 11 9 9 11 16 15
43 43 43 43 43 43 43 43 43 44 45 45 46 47 49 49 47 45 45 40 40 40 39 32 24 27 22 24 28 24 25 24 20 19 16 18 16 15 14 11 7 8 8 6 7 11 13
42 42 41 42 42 43 43 42 43 44 44 45 46 47 49 49 43 43 40 33 29 27 29 24 16 20 21 25 29 24 26 23 20 19 13 15 9 8 12 12 12 8 8 8 8 10 14
43 42 41 42 42 42 42 42 43 44 44 45 46 48 49 47 42 41 39 34 38 40 21 20 18 18 22 26 21 26 29 23 20 14 15 16 12 14 12 13 13 13 12 12 12 12 13
42 41 41 41 41 41 42 42 43 44 44 45 46 47 48 45 41 39 36 39 42 41 28 17 14 17 21 24 21 26 31 27 20 15 16 13 13 16 14 12 12 13 11 16 16 14 15
41 41 41 41 41 41 41 42 42 43 44 44 46 47 46 45 35 32 33 38 45 44 21 16 11 15 18 19 21 27 31 29 23 20 19 16 16 15 15 14 15 15 17 17 14 15 12
40 40 40 41 41 41 41 42 43 43 44 44 46 46 44 43 35 33 37 40 46 44 16 17 13 19 15 15 23 27 32 29 24 24 21 18 18 17 17 16 16 14 19 18 18 19 16
39 39 40 40 40 40 41 42 43 43 43 44 45 45 43 38 34 38 40 41 45 33 14 13 14 16 14 16 21 29 32 32 30 27 21 19 18 20 19 20 21 20 21 20 19 17 18
39 39 40 39 39 40 41 42 43 43 43 44 44 44 40 38 36 40 41 38 32 20 15 13 15 16 13 17 18 27 28 30 29 27 23 23 19 22 25 22 21 24 19 21 22 23 23
39 39 38 38 39 40 42 42 42 43 43 44 43 42 41 37 42 42 39 29 13 15 14 17 17 14 14 17 19 26 28 29 29 30 30 25 21 23 26 25 22 20 19 23 23 19 21
38 38 38 38 39 41 41 42 42 43 44 43 40 40 34 38 44 43 35 26 24 18 19 21 17 14 13 15 19 20 30 29 29 28 31 32 28 29 27 28 27 24 25 28 25 26 26
38 38 38 38 39 40 41 41 42 42 43 42 32 33 32 41 46 42 32 26 21 22 23 22 17 18 16 16 18 19 25 31 27 26 28 37 30 29 27 27 28 29 29 27 30 25 23
37 37 38 38 38 40 41 41 42 42 42 41 35 23 31 40 47 33 31 23 22 24 24 24 20 19 18 18 19 21 23 29 27 23 23 30 35 30 31 28 29 29 31 34 35 32 26
37 37 37 38 38 40 41 41 41 42 39 36 29 22 30 41 33 30 27 25 26 23 24 26 25 23 20 21 20 22 20 23 28 20 21 28 30 29 27 28 32 28 30 37 30 29 32
37 37 37 38 37 39 40 41 41 42 40 34 20 19 27 35 33 27 25 24 25 24 23 24 24 24 22 20 20 20 20 21 28 18 20 25 29 25 23 31 35 32 32 35 37 35 31
37 37 37 37 37 39 40 40 41 41 39 36 24 30 22 23 25 23 22 20 22 25 24 25 23 22 20 17 20 19 17 22 20 18 24 30 28 30 27 27 29 29 28 29 34 32 32
37 36 37 36 36 39 40 39 40 40 38 36 28 23 28 20 20 23 21 18 17 18 20 22 23 19 17 21 18 17 17 17 19 20 23 23 21 20 22 23 23 23 27 28 33 35 32
37 36 36 36 36 39 40 39 40 41 37 31 31 20 20 20 21 20 23 19 17 17 19 19 20 18 17 16 16 16 18 17 17 17 18 20 21 21 21 23 25 30 28 28 30 31 33
37 36 36 36 36 39 40 39 40 39 36 26 25 32 22 19 18 15 18 20 19 21 21 21 20 18 18 23 21 20 20 21 21 21 23 24 21 21 20 24 25 28 27 24 29 29 32
38 36 36 36 35 37 39 39 39 38 35 30 32 25 24 13 13 16 17 18 17 19 20 19 20 20 23 21 26 25 24 26 29 32 34 26 22 21 21 25 25 30 23 22 23 22 23
38 36 36 36 35 35 37 39 38 38 38 31 33 25 22 12 13 16 18 18 18 19 20 20 23 24 24 27 21 17 21 35 33 32 34 32 24 23 24 25 30 28 23 21 21 22 23
39 37 36 36 35 36 35 38 37 39 39 29 36 32 25 17 14 15 18 19 15 18 20 22 23 23 29 24 19 18 16 21 21 26 33 31 30 27 27 27 28 29 28 22 22 25 25
40 38 37 36 36 36 35 36 36 35 36 31 32 38 26 24 20 21 18 20 22 24 21 22 22 22 26 21 17 16 16 17 21 21 22 28 27 24 25 26 30 35 31 29 29 31 25
41 39 38 36 36 36 35 35 36 34 35 32 33 35 31 20 24 24 23 23 24 25 23 25 25 28 22 20 19 17 17 18 21 21 25 26 27 28 27 26 27 35 33 32 33 29 25
41 41 39 37 36 36 36 35 36 35 34 36 29 33 34 28 28 29 28 28 26 26 25 25 24 23 24 22 22 21 18 19 18 18 28 28 32 27 27 32 36 34 35 34 33 34 26
Wind_Speed
8 7 7 9 11 11 13 15 15 17 19 21 22 24 27 27 26 24 25 25 24 24 21 17 13 12 6 4 7 13 16 11 14 9 10 11 13 14 17 18 8 17 15 4 2 3 5
6 7 7 9 11 12 14 15 16 18 19 21 23 24 26 27 26 25 24 23 22 20 17 15 14 16 5 2 10 14 15 11 6 11 6 8 8 11 13 13 12 8 9 7 6 5 5
6 7 7 9 11 13 14 15 18 18 19 21 23 24 26 27 28 26 26 24 19 14 12 10 12 8 20 10 10 14 13 8 6 8 10 4 8 11 6 10 4 9 13 12 13 9 6
4 7 7 8 11 12 15 17 18 20 20 20 23 24 27 29 30 31 28 24 12 11 11 10 8 6 8 9 14 15 12 6 6 5 6 5 5 6 8 2 10 13 16 18 10 9 7
7 7 8 9 11 13 15 17 18 19 21 22 24 25 27 29 29 31 29 19 12 9 10 14 4 4 5 9 18 17 14 9 10 4 2 5 7 8 5 12 16 16 16 13 7 11 5
6 8 8 10 12 14 15 16 17 20 21 24 26 25 26 27 27 28 25 10 9 9 10 5 14 4 16 15 15 16 21 7 7 9 9 7 7 10 12 11 14 16 20 17 13 5 9
6 6 8 10 12 14 14 15 17 20 22 24 25 25 24 22 23 27 15 6 6 5 19 14 11 11 12 19 7 19 22 9 7 5 8 1 11 9 13 10 12 14 15 18 17 14 11
6 7 8 10 11 12 13 16 18 21 23 24 25 25 22 20 15 21 11 6 5 5 13 12 10 15 8 15 6 21 23 10 6 5 6 10 4 8 6 7 10 12 16 17 16 15 16
7 7 7 9 10 12 14 17 19 20 22 24 25 25 23 21 9 7 21 12 5 3 2 10 11 17 16 11 12 21 19 11 6 5 8 7 10 5 8 11 11 13 15 14 18 22 21
6 5 6 9 11 13 16 19 20 21 22 23 24 25 24 21 3 10 8 12 5 3 4 14 14 11 15 6 1 15 16 6 2 6 9 3 3 6 7 10 7 14 10 16 19 19 20
5 4 6 9 12 15 18 19 20 21 22 22 21 23 20 17 4 8 9 7 2 3 2 11 8 8 9 11 11 16 21 3 7 8 7 7 7 10 9 10 10 14 13 18 18 18 21
4 4 8 11 13 16 17 19 20 21 23 23 19 19 23 5 5 10 8 1 3 1 5 5 7 12 14 13 12 11 16 17 3 8 2 6 3 4 10 10 8 12 15 19 20 18 11
6 7 10 12 14 16 18 19 20 22 23 22 18 12 11 9 9 13 4 4 3 8 2 8 9 10 11 12 13 16 15 25 19 11 12 14 5 4 7 13 7 10 15 11 7 4 5
9 10 11 12 14 16 18 19 21 23 24 22 17 9 3 12 12 7 4 1 11 1 6 6 8 6 8 14 10 12 13 13 22 18 12 9 2 9 14 11 11 18 9 5 5 13 23
10 10 11 13 15 16 18 20 22 24 24 22 16 2 12 16 11 4 4 13 4 4 5 8 3 5 6 13 7 7 10 13 12 18 10 8 6 20 13 10 10 9 10 8 10 10 7
9 10 12 14 15 17 19 22 23 25 24 18 4 2 13 20 10 5 10 6 5 4 5 6 7 7 8 13 11 9 8 6 10 14 11 2 10 14 8 8 9 7 9 7 6 6 7
9 10 12 14 16 18 20 22 24 26 26 14 3 0 15 19 10 10 9 7 9 6 4 8 6 5 8 12 10 7 7 6 12 16 15 5 4 12 18 10 9 6 6 4 4 1 3
8 10 12 14 17 18 20 23 25 26 29 8 4 4 16 16 7 7 9 5 3 5 4 5 4 5 7 11 6 5 7 6 13 18 14 5 6 14 19 16 5 8 2 4 1 1 4
8 10 11 13 16 18 21 23 25 23 20 7 4 6 13 8 7 11 11 12 8 3 7 4 4 6 7 7 5 6 6 7 5 17 12 11 4 13 8 6 13 6 7 5 5 1 6
8 9 11 14 16 19 21 24 25 21 18 7 2 4 7 10 11 13 11 6 6 4 6 3 5 2 9 6 2 8 12 4 15 16 8 6 9 6 14 21 13 19 16 14 7 3 6
8 9 10 14 17 19 22 25 25 19 15 5 5 5 2 4 9 9 7 4 5 3 2 3 3 7 9 5 15 2 12 20 15 2 6 6 13 17 18 23 23 23 21 16 9 10 7
8 8 10 14 17 19 23 24 25 22 17 7 4 3 6 7 3 7 3 5 4 4 3 3 4 8 9 11 11 18 19 18 10 9 10 14 10 20 24 21 13 14 20 12 18 16 17
9 8 10 13 17 18 21 24 27 29 13 6 5 2 1 3 3 0 4 4 4 2 2 3 6 11 9 11 18 23 23 21 21 22 21 20 12 13 13 11 15 7 8 6 2 4 12
10 9 10 12 15 17 20 23 25 27 19 9 5 1 3 4 2 5 5 3 3 3 3 5 7 9 12 21 24 21 20 17 9 11 13 12 11 10 13 14 3 5 8 6 7 10 9
12 10 10 11 13 16 18 20 21 20 23 13 6 2 2 6 8 5 3 2 0 2 3 5 4 8 15 17 9 7 2 3 6 4 1 10 9 7 6 10 10 8 15 6 5 14 16
13 11 10 10 12 14 16 17 18 18 19 11 13 6 3 6 5 4 4 2 4 4 1 1 6 9 9 10 6 4 5 6 3 2 6 2 8 4 5 5 2 15 20 8 3 10 18
15 13 11 10 10 12 14 14 16 16 17 11 10 11 2 6 5 0 3 5 3 2 4 2 8 5 5 7 7 5 6 5 5 7 7 1 3 9 10 5 6 25 23 11 9 13 17
16 14 12 10 9 10 11 12 13 15 16 11 7 11 7 4 6 2 2 2 2 2 4 6 5 3 6 5 5 5 5 6 7 11 4 4 5 3 4 5 5 24 22 17 13 13 14
17 15 13 11 9 8 8 10 12 13 15 15 9 8 4 3 7 2 2 3 3 3 3 2 3 0 5 4 4 6 9 7 10 7 1 3 3 6 7 6 13 27 14 18 19 16 12
Wind_Direction
60 39 15 21 20 14 11 5 3 358 351 345 344 341 338 336 336 331 324 322 321 320 323 326 323 314 295 180 21 345 322 318 279 293 281 290 281 280 271 279 303 266 284 296 270 217 247
60 53 18 21 19 13 13 5 359 357 351 345 342 339 336 333 332 327 322 323 319 315 322 327 327 320 257 130 340 344 342 322 309 298 299 306 308 320 287 286 288 325 278 271 237 200 209
52 55 26 21 23 14 12 4 356 354 348 346 342 338 334 334 332 328 333 335 327 318 319 319 320 315 63 19 335 346 345 329 316 311 308 350 302 270 332 264 258 270 260 220 231 206 206
59 53 35 22 19 16 12 4 357 349 345 347 342 341 338 337 337 331 337 334 324 318 309 291 295 288 82 22 345 355 343 335 331 279 295 310 300 295 280 322 253 259 247 273 185 181 164
59 48 41 21 21 15 10 3 353 348 346 345 346 346 342 339 337 329 329 325 299 284 270 276 302 279 46 338 8 346 357 336 304 255 283 288 262 281 243 251 263 225 263 285 205 191 232
65 47 33 30 17 16 4 357 353 349 347 351 348 346 341 337 330 322 323 289 285 295 240 246 17 130 33 351 337 344 351 307 311 300 249 248 253 253 219 247 277 331 310 309 293 199 203
55 45 30 24 15 10 359 353 358 352 351 352 346 341 338 336 325 331 325 248 243 90 48 65 46 34 350 343 293 10 348 312 312 256 302 277 281 266 351 339 311 298 289 288 290 294 290
62 35 25 18 12 3 356 359 3 356 353 350 343 336 337 336 316 330 18 71 42 0 73 53 43 30 10 337 347 10 354 358 323 327 299 248 263 12 339 304 296 293 288 292 304 318 309
60 37 20 14 9 3 360 5 3 356 352 348 341 335 338 339 298 339 53 43 352 297 196 38 26 25 4 344 22 5 358 326 328 303 338 300 10 347 293 301 297 299 308 323 313 305 285
66 35 22 17 11 2 6 6 360 354 352 347 341 337 340 343 283 350 48 0 360 301 147 9 14 23 347 1 316 351 356 331 269 336 326 8 23 321 309 298 318 301 353 313 305 309 301
63 28 27 20 13 6 8 3 357 353 350 345 340 334 340 347 3 30 329 333 339 255 78 352 7 310 4 36 343 7 15 292 8 333 297 62 326 335 309 327 329 300 327 301 290 286 298
66 38 35 21 13 6 7 1 355 351 347 342 341 338 327 356 58 3 339 280 238 172 38 14 6 351 15 19 19 350 33 10 316 310 267 325 309 308 339 310 288 304 290 282 297 282 291
70 46 32 20 12 6 4 358 352 350 347 341 339 331 360 22 339 334 312 225 36 65 301 360 341 344 19 6 17 7 14 38 30 349 357 324 80 6 350 311 256 266 310 334 323 324 279
68 47 29 18 13 6 4 357 352 348 345 339 332 313 357 22 337 325 244 128 68 284 27 343 343 333 31 16 16 22 27 35 28 14 311 341 211 15 8 330 319 302 327 338 303 319 310
69 44 29 22 13 7 1 358 353 348 345 335 318 185 10 351 337 297 282 55 53 28 356 348 302 355 33 21 343 344 60 30 22 24 16 342 269 337 297 315 320 328 342 344 300 316 300
68 48 31 24 12 5 4 359 354 348 345 339 340 260 18 344 335 292 68 98 88 54 356 337 31 15 360 3 3 3 40 10 4 9 356 3 297 295 311 297 262 298 340 319 346 324 325
69 48 33 22 13 7 5 1 356 349 345 340 308 213 6 341 299 52 73 90 102 57 15 9 17 5 356 2 346 5 27 94 8 352 327 326 246 293 313 289 254 309 318 355 83 26 309
74 50 33 20 16 9 7 4 360 355 344 307 349 57 356 329 46 60 79 103 77 64 47 55 11 6 360 346 334 344 347 1 5 345 336 7 294 287 281 282 305 291 347 124 206 254 243
78 49 35 23 18 12 10 6 3 357 3 324 67 45 14 329 82 90 106 96 74 82 35 25 42 13 353 327 326 328 351 344 345 342 345 331 267 309 287 131 20 7 349 99 122 151 250
83 57 37 27 22 16 13 9 5 356 348 327 57 65 48 50 58 110 115 83 108 58 74 39 23 339 343 334 323 298 303 352 319 320 320 246 278 262 279 298 275 295 300 284 245 234 299
93 60 46 34 26 21 17 12 7 355 336 330 56 66 358 49 61 84 88 97 103 95 63 1 180 21 351 333 321 330 325 318 319 6 272 317 288 285 281 288 292 283 304 296 230 232 254
107 73 52 41 31 27 21 13 8 5 332 57 89 114 99 97 82 94 97 76 74 71 355 72 348 343 322 303 309 306 316 313 302 302 317 320 298 304 288 278 290 298 293 284 254 250 247
121 88 60 47 39 33 27 20 15 9 346 77 65 65 311 181 100 60 52 73 88 353 64 358 344 322 321 340 311 294 285 279 272 288 291 293 276 299 279 341 313 288 298 304 322 198 226
131 103 72 56 45 39 34 29 22 14 20 85 60 9 102 105 75 70 108 89 90 52 327 324 316 313 345 321 300 277 254 247 232 273 269 253 265 270 291 310 231 239 24 41 63 46 20
138 115 88 69 55 45 41 38 32 19 10 65 50 13 55 112 103 122 134 94 137 184 272 323 347 337 318 305 322 343 291 130 172 64 156 230 261 291 276 310 275 15 32 26 26 60 25
143 127 106 85 66 53 45 43 37 26 6 67 44 357 16 127 79 102 132 49 4 352 188 33 335 324 310 294 312 332 315 322 296 360 51 113 249 337 317 300 314 6 354 22 243 54 12
147 138 122 102 79 61 50 46 43 31 6 48 51 8 346 103 107 217 50 37 24 358 295 36 346 328 292 332 315 342 312 317 309 315 337 202 190 242 262 283 275 356 360 324 37 349 350
152 146 134 117 97 75 55 49 44 33 9 27 59 26 353 75 107 96 79 84 118 25 347 11 267 33 351 358 324 353 317 340 293 308 342 300 321 208 231 256 269 0 9 36 348 341 1
156 150 142 132 114 91 65 53 47 33 6 332 65 37 347 23 79 81 40 333 340 6 315 50 43 269 18 315 345 325 313 321 305 295 283 289 359 319 293 308 311 312 8 13 352 337 360